Location: Marcé
(47.5801°N, 0.3280°W)
Time: 22:57:40
(UTC+01:00)

S-56A Canister/Altair - Pass Details

Date: 30 November 2021
Orbit: 633 x 2499 km, 38.9° (Epoch: 16 January)

Event Time Altitude Azimuth Distance (km) Brightness Sun altitude
Rises 23:43:00 0° 194° (SSW) 5,186 - -60.9°
Reaches altitude 10° 23:49:36 10° 168° (SSE) 3,686 - -61.5°
Maximum altitude 23:52:36 12° 149° (SSE) 3,283 - -61.7°
Drops below altitude 10° 23:55:18 10° 129° (SE) 3,206 - -61.9°
Sets 23:59:56 0° 99° (E) 3,769 - -62.3°
